Starlink 30275

operational
NORAD ID: 57667 Int'l Des: 2023-124 Owner: SPXS Country: US Constellation: starlink
LEOCIRCULAR

About Starlink 30275

Description loading...

Live Position

Loading 3D Globe...

Upcoming Passes

Altitude History

Altitude vs Time

uPlot chart will show altitude changes over time

Two-Line Element Set

1 57667U 23124E 25352.91000284 .00002119 00000-0 83666-4 0 9990
2 57667 53.1592 222.2860 0001431 88.1217 271.9947 15.30195885131195
Epoch: Dec 18, 2025 • Age: 10 hours

Current Status

Altitude 475.4 km
Velocity 7.63 km/s
Sub-Earth Point 21.60°N, 176.37°E
Launch Date Aug 22, 2023
Age 2.3 years
Type internet

Technical Details

Classification Payload
Mass 730.00 kg
Dry Mass 700.00 kg
Total Mass 730.00 kg
Length 0.30 m
Diameter 4.10 m
Span 29.00 m
Shape Box + pan
Manufacturer SPXS
Bus Type Starlink V2M
Phase Status In Orbit
Owner/State SPXS/US

Large Constellations

Loading constellations...